Flag for United Kingdom Weather past 2 weeks in Wakefield, England, United Kingdom

Now
46 °F

Scattered clouds.


Feels Like: 39 °F
Forecast: 40 / 56 °F
Wind: 20 mph from West

Location: Leeds And Bradford

Current Time: May 6, 2015 at 9:35:54 PM

Latest Report: May 6, 2015 at 8:50 PM


Visibility: N/A

Pressure: 29.59 "Hg

Humidity: 87%

Dew point: 43 °F

Location of WakefieldLocation

Historic Weather in Wakefield — Graph

°F

Wakefield temperature yesterday

Maximum temperature yesterday: 55 °F (at 3:50 PM)
Minimum temperature yesterday: 46 °F (at 5:20 AM)
Average temperature yesterday: 50 °F

Past Weeks' High & Low Weather Summary

 TemperatureHumidityPressure
High64 °F (Apr 23, 3:20 PM)100% (Apr 23, 8:20 AM)30.60 "Hg (Apr 23, 8:20 AM)
Low30 °F (Apr 27, 2:50 AM)24% (Apr 27, 1:50 PM)29.03 "Hg (May 5, 10:20 AM)
Average46 °F76%29.75 "Hg
* Reported Apr 21 8:20 PM — May 6 8:20 PM, Wakefield, Weather by CustomWeather, © 2015

Note: Actual official high and low records may vary slightly from our data, if they occured in-between our weather recording intervals... More about our weather records

Advertising

Wakefield weather history for previous 24 hours

 ConditionsComfort  
Time TempWeatherWind HumidityBarometerVisibility
8:20 PM
Wed, May 6
46 °FScattered clouds.22 mph87%29.56 "HgN/A
7:50 PM46 °FScattered clouds.20 mph82%29.53 "HgN/A
7:20 PM46 °FScattered clouds.23 mph82%29.50 "HgN/A
6:50 PM48 °FScattered clouds.23 mph76%29.50 "HgN/A
6:20 PM48 °FScattered clouds.18 mph82%29.47 "HgN/A
5:50 PM48 °FSprinkles. Scattered clouds.21 mph82%29.45 "HgN/A
5:20 PM48 °FScattered clouds.18 mph87%29.42 "HgN/A
4:50 PM46 °FSprinkles. Scattered clouds.20 mph93%29.39 "HgN/A
4:20 PM48 °FSprinkles. Scattered clouds.21 mph87%29.36 "HgN/A
3:50 PM48 °FScattered clouds.17 mph94%29.33 "HgN/A
3:20 PM48 °FLight rain. Scattered clouds.16 mph94%29.33 "HgN/A
2:50 PM46 °FLight rain. Scattered clouds.14 mph93%29.33 "HgN/A
2:20 PM46 °FLight rain. Scattered clouds.15 mph93%29.33 "HgN/A
1:50 PM46 °FLight rain. Partly sunny.14 mph87%29.30 "HgN/A
1:20 PM48 °FLight rain. Partly sunny.18 mph87%29.30 "HgN/A
12:50 PM46 °FLight rain. Partly sunny.17 mph93%29.30 "HgN/A
12:20 PM46 °FLight rain. Partly sunny.16 mph93%29.30 "HgN/A
11:50 AM46 °FLight rain. Broken clouds.13 mph93%29.30 "HgN/A
11:20 AM48 °FLight rain. Broken clouds.17 mph82%29.27 "HgN/A
10:50 AM46 °FLight rain. Broken clouds.15 mph87%29.27 "HgN/A
10:20 AM46 °FLight rain. Broken clouds.16 mph82%29.30 "HgN/A
9:50 AM46 °FLight rain. Broken clouds.16 mph82%29.27 "HgN/A
9:20 AM46 °FSprinkles. Broken clouds.18 mph82%29.27 "HgN/A
8:50 AM46 °FSprinkles. Scattered clouds.18 mph76%29.30 "HgN/A
8:20 AM46 °FScattered clouds.14 mph71%29.30 "HgN/A
7:50 AM46 °FScattered clouds.9 mph71%29.33 "HgN/A
7:20 AM46 °FScattered clouds.16 mph71%29.30 "HgN/A
6:50 AM46 °FScattered clouds.17 mph71%29.33 "HgN/A
6:20 AM45 °FPartly cloudy.15 mph76%29.33 "HgN/A
5:50 AM45 °FPassing clouds.12 mph81%29.33 "HgN/A
5:20 AM45 °FPassing clouds.10 mph81%29.36 "HgN/A
4:50 AM45 °FPassing clouds.9 mph76%29.36 "HgN/A
4:20 AM45 °FPassing clouds.10 mph76%29.36 "HgN/A
3:50 AM45 °FPassing clouds.10 mph71%29.36 "HgN/A
3:20 AM45 °FPassing clouds.12 mph76%29.36 "HgN/A
2:50 AM45 °FPassing clouds.12 mph76%29.36 "HgN/A
2:20 AM46 °FPassing clouds.14 mph76%29.36 "HgN/A
1:50 AM46 °FPassing clouds.14 mph76%29.36 "HgN/A
1:20 AM45 °FPassing clouds.6 mph87%29.36 "HgN/A
12:50 AM45 °FPassing clouds.8 mph87%29.36 "HgN/A
12:20 AM46 °FPassing clouds.10 mph82%29.36 "HgN/A
11:50 PM
Tue, May 5
46 °FPassing clouds.15 mph82%29.33 "HgN/A
11:20 PM46 °FPassing clouds.16 mph82%29.33 "HgN/A
10:50 PM46 °FSprinkles. Passing clouds.17 mph82%29.33 "HgN/A
10:20 PM48 °FSprinkles. Passing clouds.17 mph76%29.30 "HgN/A
9:50 PM50 °FSprinkles. Passing clouds.21 mph71%29.27 "HgN/A
9:20 PM50 °FSprinkles. Scattered clouds.20 mph71%29.27 "HgN/A
Weather by CustomWeather, © 2015

See weather overviewHow to use our weather pages